Helicity
24 21 27 43 47 48 45 41 38 42 40 35 40 46 51 57 49 52 58 50 31 20 13 27 43 55 27 36 32 26 82 74 53 45 41 30 26 20 41 53 68 84 82 95 93 137 163
20 31 32 26 40 50 61 61 56 49 45 48 46 51 57 61 60 58 55 55 32 16 12 22 39 50 25 38 28 44 59 57 68 58 55 56 32 32 57 66 76 79 118 109 100 106 113
14 18 28 40 34 40 54 62 68 60 59 55 60 57 56 65 68 64 56 54 33 16 15 24 39 28 28 22 30 63 63 51 70 61 63 65 61 62 59 87 83 104 119 100 91 88 81
13 19 13 28 43 45 40 55 66 70 73 72 73 61 61 62 74 66 60 51 29 18 18 26 38 26 8 28 44 60 83 71 87 73 73 78 92 95 99 97 128 101 110 92 76 107 97
22 12 25 20 19 45 50 51 56 74 87 86 73 71 67 69 66 66 62 46 19 18 16 32 42 25 20 43 52 56 76 91 94 87 90 101 122 130 149 145 128 126 85 80 75 73 101
34 29 32 18 28 29 43 55 62 68 72 89 94 88 80 70 67 70 76 25 21 40 45 46 53 43 41 35 45 60 71 90 111 115 138 154 160 159 167 157 87 83 95 82 71 51 93
33 39 51 40 18 22 33 36 59 64 73 74 84 92 94 88 75 66 67 65 75 61 80 38 41 45 44 53 78 95 97 101 109 145 140 158 159 108 70 101 113 96 96 82 77 71 97
10 11 29 56 43 29 26 38 43 57 67 72 73 77 99 107 91 55 61 87 72 66 37 56 69 72 66 71 79 107 120 119 136 134 144 166 95 88 102 95 94 90 84 62 69 85 85
32 21 23 20 42 46 27 27 45 46 64 70 72 80 87 105 89 69 73 71 59 52 30 37 81 79 73 84 80 93 116 119 122 128 115 116 96 121 112 115 106 86 78 72 74 87 87
41 40 21 33 28 33 40 34 36 34 56 69 78 85 94 104 70 60 71 60 67 52 34 20 56 93 110 100 79 80 92 96 107 73 90 85 96 99 103 86 102 73 85 102 104 108 79
45 66 42 43 43 30 31 35 42 38 35 66 75 87 97 83 61 81 58 49 60 61 -5 33 40 69 85 88 55 76 71 81 75 77 105 67 71 92 75 69 99 76 121 137 148 158 141
79 51 71 51 47 41 36 34 30 52 52 50 71 92 92 89 88 61 68 65 78 124 32 46 46 42 81 85 72 64 65 73 71 74 80 63 76 85 92 112 129 120 145 162 173 186 188
120 81 59 77 78 64 70 51 42 34 48 46 54 82 98 74 79 79 92 118 155 133 79 42 53 82 85 82 76 66 70 83 70 83 60 79 83 102 112 123 149 171 175 140 154 200 173
120 110 149 78 78 80 63 50 59 49 41 44 47 65 83 79 82 112 149 191 174 108 121 122 84 82 73 114 102 102 92 89 89 118 75 50 62 106 140 159 131 147 173 176 164 168 134
161 146 127 134 141 77 91 99 62 56 71 63 63 71 85 102 114 145 255 218 151 95 125 129 160 114 109 127 139 118 89 86 85 167 108 84 85 120 126 141 156 151 173 170 207 206 216
189 180 164 139 129 118 78 69 98 92 97 92 95 106 102 118 155 229 276 281 201 124 143 138 99 104 84 144 181 149 97 73 94 121 172 123 110 132 160 176 207 198 178 219 227 167 159
151 163 170 149 112 149 107 39 39 141 188 139 130 170 177 179 244 332 320 263 205 170 164 112 90 124 130 140 148 170 149 137 128 147 193 200 184 164 204 168 189 259 283 296 268 314 253
128 129 156 156 147 142 152 72 17 54 241 200 165 153 179 221 372 402 376 299 221 195 240 190 175 122 138 160 164 187 150 173 161 191 163 159 184 164 162 213 237 258 257 331 337 288 383
107 137 141 122 131 152 167 180 81 111 155 195 159 246 266 304 314 394 399 322 270 219 211 185 189 186 215 170 201 163 215 300 266 241 157 206 226 266 256 245 264 272 298 350 392 387 417
131 70 104 129 117 132 154 156 46 101 197 194 118 136 271 314 273 287 327 272 278 267 259 251 234 279 287 258 261 197 230 252 274 268 303 302 297 296 253 210 213 223 244 311 397 429 381
94 112 75 94 102 126 138 150 64 62 112 195 94 91 124 104 132 238 313 308 304 310 298 255 310 291 277 288 343 309 369 364 347 308 352 336 275 291 242 211 211 221 275 335 364 335 407
89 105 110 86 92 100 114 122 39 97 101 120 25 49 67 126 111 90 185 225 218 220 295 359 353 411 331 366 422 436 409 405 359 350 327 360 317 292 246 251 208 229 259 269 279 292 305
67 86 113 81 72 89 98 96 43 111 135 128 109 139 78 46 89 124 102 100 62 125 111 212 256 270 276 311 317 314 359 369 336 263 310 322 329 302 245 261 257 241 307 265 341 407 319
39 60 80 98 65 62 74 86 36 89 125 170 125 99 45 -2 112 135 44 35 57 96 140 102 131 175 209 261 282 303 380 361 326 339 307 312 357 357 352 306 270 296 284 248 197 229 319
29 54 87 93 59 53 64 62 37 24 47 147 128 121 54 26 54 60 51 89 95 89 99 102 114 173 179 246 271 275 308 282 279 326 362 397 398 382 317 294 265 288 291 279 298 263 226
40 50 82 107 77 66 60 55 59 22 16 133 87 153 106 101 105 74 75 80 114 158 140 135 149 216 214 166 170 193 202 235 182 272 453 458 425 338 382 324 232 249 246 212 221 278 208
41 40 69 78 45 45 51 56 57 57 31 152 93 120 138 59 54 118 91 52 28 62 138 121 104 183 255 225 240 229 261 314 269 255 264 370 398 264 302 326 317 267 266 229 320 178 131
41 28 46 61 49 42 38 29 47 48 63 180 124 95 77 108 101 127 113 97 96 62 102 66 62 97 165 157 164 205 223 235 254 272 215 251 256 309 377 386 282 231 297 213 160 210 165
18 25 28 34 31 28 27 30 48 45 72 192 151 143 137 91 113 125 113 113 118 120 118 89 117 61 67 81 83 136 153 168 212 270 234 228 227 196 212 202 243 108 186 191 189 197 165
Wind_Speed
34 34 35 36 36 37 38 39 40 41 43 44 46 47 48 49 49 48 47 47 45 44 43 40 39 39 36 39 39 37 40 38 36 34 31 31 30 29 23 27 26 26 22 25 22 20 20
34 37 38 37 38 39 41 43 43 44 44 46 47 48 49 50 51 51 49 48 46 45 42 41 39 39 38 43 36 40 41 38 36 34 33 32 27 27 26 28 27 25 23 21 23 20 19
35 36 40 41 41 41 43 45 46 46 47 47 49 50 51 52 53 53 51 50 48 45 44 41 39 36 40 43 38 41 41 38 37 35 31 30 29 27 25 25 24 22 24 26 21 19 22
35 40 38 42 43 44 44 46 48 49 50 50 51 51 53 53 54 54 53 51 49 46 44 40 39 37 44 38 39 39 40 37 37 34 31 30 30 25 27 22 28 25 26 17 18 15 20
25 35 42 42 42 46 47 47 48 50 51 52 52 53 54 55 55 55 54 52 45 43 42 40 37 41 47 38 39 40 37 38 38 34 30 30 28 27 24 21 26 30 22 17 23 10 17
39 33 33 42 46 42 47 48 49 50 51 53 55 55 56 56 56 54 55 45 40 40 36 37 39 45 42 42 41 40 39 37 35 33 30 31 31 28 26 19 16 18 17 21 18 15 13
43 48 44 39 42 44 43 46 50 50 51 52 54 57 58 58 56 53 47 40 40 38 39 46 44 48 46 45 41 43 40 36 34 34 35 33 31 23 12 11 26 24 22 21 24 22 14
23 28 45 47 43 47 45 45 46 51 52 53 54 55 57 59 57 49 40 38 37 38 56 43 46 48 45 43 49 43 37 37 36 40 32 36 33 30 26 15 23 24 25 24 29 27 15
46 32 33 28 36 46 48 47 46 47 51 54 55 54 56 59 57 40 38 36 36 36 54 53 45 46 44 38 42 41 37 33 35 34 31 33 38 24 23 20 18 23 24 27 30 30 24
52 47 43 45 39 38 44 49 49 48 47 51 54 56 54 58 41 38 38 34 35 36 57 53 47 43 37 34 40 33 32 32 32 31 29 37 31 21 19 20 20 29 25 30 31 33 38
59 53 55 46 46 47 45 48 51 51 49 47 50 52 52 39 43 41 37 33 33 38 59 39 39 36 35 32 32 32 31 29 30 27 27 31 23 20 19 24 21 31 30 34 38 40 47
69 62 57 54 53 53 53 53 52 53 54 50 48 48 48 38 37 39 37 35 34 46 58 40 35 35 32 35 33 29 29 29 30 29 33 32 29 26 24 26 27 22 33 40 43 45 51
68 68 59 58 57 57 59 60 57 55 55 52 48 46 43 37 35 30 34 35 47 51 42 41 42 36 33 31 33 31 30 29 28 31 33 34 30 28 26 28 30 30 36 53 54 47 49
69 68 65 66 63 62 60 61 61 59 56 52 52 49 37 35 30 26 28 45 58 49 48 42 37 33 35 26 33 29 31 36 33 33 38 37 40 26 31 31 33 28 32 39 56 53 51
71 71 70 69 68 73 68 63 58 59 58 53 52 47 44 36 25 29 34 54 57 55 48 38 39 42 41 37 37 33 37 41 35 24 35 34 38 32 32 31 28 32 34 35 48 53 60
75 75 74 72 72 74 72 69 62 55 56 50 54 51 46 33 25 33 52 59 55 47 43 42 50 41 45 39 37 36 38 40 40 30 33 35 49 38 36 36 37 35 27 42 43 58 64
73 75 76 76 76 76 78 70 64 56 47 46 54 61 48 35 33 48 67 67 63 56 44 46 54 55 52 47 44 45 46 42 35 31 33 35 42 44 39 39 38 38 42 42 43 44 59
74 74 74 75 75 77 77 75 68 50 45 47 51 66 48 40 56 60 73 65 57 58 54 59 56 53 50 49 52 53 52 51 31 28 38 37 44 52 51 44 43 44 44 38 49 53 51
75 76 77 75 74 73 70 66 67 44 43 50 62 63 48 48 73 75 72 77 72 65 63 61 64 59 55 57 63 57 55 48 38 37 37 32 51 59 62 55 48 49 46 45 48 53 59
73 72 72 72 73 74 72 69 56 43 40 49 57 69 58 58 62 69 75 83 81 65 72 66 69 62 62 66 62 64 56 49 46 46 44 39 54 58 65 58 45 52 48 44 48 63 71
68 68 65 64 66 67 69 68 56 50 49 48 53 65 58 68 71 70 65 74 80 82 69 64 72 71 67 71 67 69 59 55 52 50 46 46 66 63 67 63 62 64 62 53 55 59 72
62 62 64 59 59 59 60 62 50 46 46 59 66 64 66 73 64 63 65 76 79 76 74 78 79 73 73 74 70 67 61 62 63 52 50 51 65 60 75 70 71 77 67 62 63 66 76
63 62 64 57 52 54 53 53 46 39 47 60 60 55 57 64 62 65 67 67 65 59 70 75 75 79 84 83 75 69 60 57 56 60 54 53 58 65 84 69 76 92 71 66 69 67 68
65 65 66 63 49 49 51 52 43 35 46 57 58 62 67 81 72 72 68 61 68 61 65 59 60 67 62 45 45 51 51 54 54 55 50 54 55 59 77 71 95 75 58 57 60 62 57
64 63 62 63 47 48 51 49 47 40 43 53 50 58 70 77 66 67 68 67 63 59 57 62 60 53 41 49 58 63 64 62 61 55 55 52 56 67 73 77 86 79 65 64 67 72 50
59 59 58 60 54 53 53 52 48 45 44 51 53 48 52 72 77 66 61 55 62 62 60 54 45 43 44 50 55 69 74 65 63 62 57 54 53 60 66 81 93 71 55 48 50 81 42
58 60 65 66 64 62 61 57 50 48 39 43 48 45 53 69 66 54 63 60 48 54 59 51 46 45 46 58 65 69 72 58 69 69 63 59 62 72 74 84 86 61 47 43 76 75 31
53 59 62 67 72 71 69 61 50 47 37 33 45 44 51 60 59 54 54 57 52 54 62 47 49 51 48 60 63 64 67 63 66 60 62 62 63 71 69 80 97 41 38 55 49 35 27
60 64 64 69 72 73 70 62 52 48 32 28 43 37 36 50 51 44 42 46 49 51 51 44 51 52 48 53 54 52 59 56 60 76 57 71 62 66 59 65 49 27 44 39 35 34 35
Wind_Direction
332 321 318 322 323 322 324 327 329 330 332 331 329 325 320 317 313 307 305 307 300 306 317 311 289 282 275 269 267 276 277 278 278 292 312 316 323 329 41 359 356 347 34 357 14 19 12
337 325 318 316 317 319 321 324 325 327 331 331 332 328 322 317 313 310 306 304 300 303 311 313 295 285 275 266 283 282 282 284 294 300 305 312 339 352 360 346 348 5 17 25 353 2 3
333 333 322 319 316 316 318 321 322 325 326 328 329 326 323 319 316 312 308 303 296 303 306 312 304 296 278 273 291 288 290 294 296 303 313 322 329 340 358 359 17 18 1 344 357 0 350
336 322 328 323 320 318 316 317 319 320 321 323 324 326 323 321 318 313 310 305 299 305 309 314 308 304 279 291 293 298 296 297 302 308 315 320 325 348 343 9 346 354 353 20 7 14 356
358 337 320 320 322 318 317 316 316 318 319 320 322 322 320 316 318 314 312 306 314 318 319 315 312 295 282 298 294 298 305 300 301 310 317 321 327 334 341 348 340 334 351 2 355 19 2
327 339 336 325 317 322 317 318 318 318 321 320 319 318 316 313 314 314 308 319 325 326 327 320 309 290 290 291 296 300 305 306 307 308 312 315 319 320 323 328 338 342 342 345 354 2 350
327 318 322 328 324 319 321 319 317 319 318 320 319 316 314 311 311 316 323 328 326 325 314 291 292 288 293 297 306 299 305 302 307 304 299 307 305 307 309 318 331 341 342 344 343 349 351
347 341 322 317 320 318 319 319 321 316 316 317 318 318 316 311 309 318 330 330 328 322 291 301 295 293 297 300 292 298 306 295 294 291 302 302 300 309 318 320 320 326 330 334 337 341 344
313 327 326 333 325 317 315 316 319 321 316 314 315 316 316 312 311 328 329 329 329 329 294 291 295 293 296 302 299 295 296 296 292 291 294 296 304 311 317 325 327 327 327 332 332 341 339
306 310 312 311 318 320 316 313 314 316 320 317 312 312 314 314 321 325 322 329 329 330 286 286 289 292 296 301 295 302 298 294 293 290 295 293 301 314 321 323 328 320 331 330 330 332 326
303 304 301 305 307 308 311 310 311 312 315 318 318 315 314 324 315 314 319 325 328 317 274 293 287 295 288 287 297 293 295 296 291 296 297 302 312 312 318 322 327 323 334 330 327 324 322
300 300 299 298 300 300 300 302 304 307 309 313 316 317 314 317 317 312 315 316 313 290 274 288 297 293 287 283 291 300 295 299 298 299 298 303 315 319 320 326 324 337 329 328 326 323 315
303 299 299 297 297 296 294 294 296 298 302 308 312 314 314 313 312 315 313 303 285 276 290 290 288 291 289 286 288 291 295 294 297 299 298 305 305 314 317 314 320 320 323 316 317 318 316
301 301 300 294 295 295 294 291 291 291 294 302 305 307 310 310 312 311 309 285 274 283 279 289 295 296 290 289 290 294 297 293 291 297 302 301 301 303 309 306 311 313 315 314 314 316 320
299 299 298 296 296 291 290 290 291 288 287 294 302 301 300 302 303 300 284 274 278 279 283 285 289 288 287 286 287 289 289 293 292 279 289 300 301 309 310 311 314 317 309 321 314 317 314
298 296 296 295 294 291 291 287 288 288 284 290 291 292 292 296 291 287 275 271 277 285 290 286 279 282 283 281 279 282 288 296 294 287 289 297 297 300 302 306 309 307 319 314 316 313 313
297 296 294 293 293 293 289 286 283 287 283 287 288 285 289 284 281 273 268 272 276 276 281 281 281 280 280 280 277 281 287 293 290 292 289 294 293 299 300 296 295 300 300 307 310 308 311
296 296 295 293 292 292 290 285 280 279 283 284 283 279 285 275 266 271 267 272 280 277 275 275 280 279 277 278 279 277 278 286 286 287 287 286 295 290 293 303 304 299 297 293 298 305 305
294 295 294 292 291 290 290 291 284 272 282 284 278 276 283 276 266 264 273 271 272 273 273 273 274 274 277 276 279 277 280 286 281 277 285 281 288 290 295 299 298 294 293 295 300 303 297
295 293 294 292 290 288 287 287 283 270 285 286 282 275 274 270 274 270 270 271 269 275 272 272 275 274 274 273 274 281 278 284 280 279 284 282 282 283 286 298 306 298 295 289 289 295 300
294 294 295 295 293 291 288 288 280 272 271 280 284 274 274 271 269 268 271 274 272 271 272 272 272 270 271 271 272 273 277 279 282 280 281 281 281 283 286 291 295 296 295 290 285 288 292
298 294 294 294 295 294 292 289 277 271 274 270 272 279 281 273 275 271 268 270 270 272 273 271 270 275 270 271 274 275 275 275 277 277 275 281 285 289 287 291 292 292 290 290 289 291 293
296 292 290 291 293 294 294 291 280 268 270 272 274 283 285 276 272 270 273 276 278 278 279 274 274 274 271 273 277 281 282 282 280 277 271 277 281 287 287 295 295 290 289 286 293 296 297
297 289 285 286 286 290 290 291 284 269 271 276 276 276 275 274 271 272 277 279 277 280 282 286 281 277 282 286 285 285 287 285 282 281 282 279 280 287 289 295 287 298 307 306 301 302 302
296 290 284 282 279 283 284 287 286 277 272 277 277 276 271 274 274 275 279 280 283 284 285 286 286 288 284 286 280 278 278 281 279 283 281 285 283 287 287 287 294 297 301 304 305 306 307
295 291 282 279 278 278 279 281 286 282 275 278 281 280 280 270 273 279 280 281 285 286 287 291 299 296 289 282 278 273 273 279 280 284 286 284 284 279 286 288 291 303 312 316 316 303 309
293 288 279 275 275 273 274 278 282 285 281 280 281 282 280 275 277 280 277 282 289 290 289 294 295 290 291 280 276 278 278 284 279 282 284 280 281 277 283 288 295 305 310 318 304 311 320
293 288 281 274 269 268 269 273 277 282 283 280 285 285 279 278 277 283 290 286 288 289 284 292 294 289 289 281 281 283 281 280 282 285 286 283 283 286 286 289 293 309 312 304 316 327 324
284 277 277 268 265 263 263 266 273 278 278 279 284 293 294 282 284 294 295 296 296 293 288 286 292 293 290 289 289 291 288 290 288 285 288 285 288 291 289 296 312 303 316 319 321 318 318